Date String (YYYY-MM-DD hh:mm:ss) UTC,Instrument flags,absolute air pressure of the measurement (hPa),sample flow rate (lpm),inlet stack bypass flow (lpm),air temperature of the measurement (°C),ambient temperature measured by the external sensor (°C),aerosol sample conditioner tube jacket temperature (°C),OPC LED temperature (°C),internal box temperature (°C),relative humidity of the measurement (%),span deviation,mass concentration of particles derived from Lorenz-Mie calculation of OPC scattering (μg/m³),mass concentration of particles derived from Lorenz-Mie calculation of OPC scattering (μg/m³),mass concentration of particles derived from Lorenz-Mie calculation of OPC scattering (μg/m³)
DateTimeUTC,F1_M11,P_M11,Q1_M11,Q2_M11,T1_M11,T2_M11,T3_M11,T4_M11,T5_M11,U1_M11,ZSPAN_M11,X0_M11,X2_M11,X1_M11
2023-07-13 21:00:00,SystemResetWarning,0829.9,4.98,000.00,028.7,025.9,000.0,036.8,030.2,22.3,0000.0,0016.24,0005.33,0004.24
2023-07-13 21:01:00,SystemResetWarning,0829.8,5.02,000.00,028.6,024.9,000.0,036.7,030.1,22.7,0000.0,0016.59,0005.34,0004.24
2023-07-13 21:02:00,SystemResetWarning,0829.8,5.01,000.00,028.6,025.3,000.0,036.7,030.0,23.1,0000.0,0017.03,0005.39,0004.25
2023-07-13 21:03:00,SystemResetWarning,0829.8,4.99,000.00,028.5,025.7,000.0,036.7,030.0,24.1,0000.0,0017.44,0005.37,0004.24
2023-07-13 21:04:00,SystemResetWarning,0829.8,5.00,000.00,028.5,026.1,000.0,036.8,030.1,22.9,0000.0,0017.82,0005.36,0004.24
2023-07-13 21:05:00,SystemResetWarning,0829.8,5.01,000.00,028.6,026.6,000.0,036.8,030.2,21.8,0000.0,0018.69,0005.37,0004.23
2023-07-13 21:06:00,SystemResetWarning,0829.7,5.00,000.00,028.6,027.0,000.0,036.8,030.3,23.0,0000.0,0018.09,0005.33,0004.22
2023-07-13 21:07:00,SystemResetWarning,0829.7,5.00,000.00,028.7,027.3,000.0,036.9,030.4,21.7,0000.0,0017.62,0005.33,0004.21
2023-07-13 21:08:00,SystemResetWarning,0829.7,4.99,000.00,028.7,026.7,000.0,036.8,030.4,22.2,0000.0,0017.33,0005.37,0004.20
2023-07-13 21:09:00,SystemResetWarning,0829.7,5.01,000.00,028.6,025.1,000.0,036.8,030.1,22.9,0000.0,0017.17,0005.35,0004.19
2023-07-13 21:10:00,SystemResetWarning,0829.7,5.01,000.00,028.6,025.0,000.0,036.7,030.0,22.9,0000.0,0016.86,0005.24,0004.17
2023-07-13 21:11:00,SystemResetWarning,0829.7,5.00,000.00,028.5,025.5,000.0,036.7,030.0,22.0,0000.0,0017.00,0005.18,0004.16
2023-07-13 21:12:00,SystemResetWarning,0829.6,5.00,000.00,028.5,025.9,000.0,036.8,030.0,23.5,0000.0,0017.74,0005.23,0004.16
2023-07-13 21:13:00,SystemResetWarning,0829.7,5.01,000.00,028.6,026.4,000.0,036.8,030.1,24.3,0000.0,0016.94,0005.24,0004.16
2023-07-13 21:14:00,SystemResetWarning,0829.7,5.01,000.00,028.6,026.8,000.0,036.9,030.3,23.8,0000.0,0017.13,0005.25,0004.17
2023-07-13 21:15:00,SystemResetWarning,0829.7,5.00,000.00,028.7,027.2,000.0,036.9,030.4,21.4,0000.0,0017.11,0005.23,0004.18
2023-07-13 21:16:00,SystemResetWarning,0829.7,5.00,000.00,028.7,027.5,000.0,036.9,030.5,23.0,0000.0,0016.68,0005.22,0004.20
2023-07-13 21:17:00,SystemResetWarning,0829.7,4.99,000.00,028.7,026.9,000.0,036.9,030.4,23.3,0000.0,0017.40,0005.23,0004.20
2023-07-13 21:18:00,SystemResetWarning,0829.7,5.00,000.00,028.7,025.2,000.0,036.8,030.2,24.1,0000.0,0017.13,0005.23,0004.21
2023-07-13 21:19:00,SystemResetWarning,0829.6,5.01,000.00,028.6,025.0,000.0,036.7,030.1,24.4,0000.0,0018.66,0005.26,0004.23
2023-07-13 21:20:00,SystemResetWarning,0829.7,5.00,000.00,028.6,025.4,000.0,036.8,030.1,23.8,0000.0,0019.65,0005.28,0004.24
2023-07-13 21:21:00,SystemResetWarning,0829.6,4.99,000.00,028.6,025.8,000.0,036.8,030.1,22.4,0000.0,0019.09,0005.26,0004.26
2023-07-13 21:22:00,SystemResetWarning,0829.7,5.00,000.00,028.6,026.3,000.0,036.8,030.2,21.4,0000.0,0019.36,0005.28,0004.27
2023-07-13 21:23:00,SystemResetWarning,0829.7,5.00,000.00,028.6,026.7,000.0,036.9,030.3,21.6,0000.0,0019.10,0005.25,0004.28
2023-07-13 21:24:00,SystemResetWarning,0829.6,4.99,000.00,028.7,027.1,000.0,036.9,030.4,20.6,0000.0,0018.84,0005.15,0004.26
2023-07-13 21:25:00,SystemResetWarning,0829.7,5.00,000.00,028.7,027.5,000.0,036.9,030.5,21.1,0000.0,0018.73,0005.14,0004.25
2023-07-13 21:26:00,SystemResetWarning,0829.6,4.99,000.00,028.8,027.0,000.0,036.9,030.5,22.0,0000.0,0018.40,0005.18,0004.24
2023-07-13 21:27:00,SystemResetWarning,0829.6,5.00,000.00,028.7,025.3,000.0,036.8,030.2,22.7,0000.0,0017.83,0005.20,0004.23
2023-07-13 21:28:00,SystemResetWarning,0829.6,5.01,000.00,028.7,025.0,000.0,036.8,030.1,22.7,0000.0,0017.81,0005.22,0004.22
2023-07-13 21:29:00,SystemResetWarning,0829.6,5.01,000.00,028.6,025.4,000.0,036.8,030.1,22.1,0000.0,0017.45,0005.22,0004.21
2023-07-13 21:30:00,SystemResetWarning,0829.7,5.00,000.00,028.6,025.8,000.0,036.8,030.0,22.7,0000.0,0016.75,0005.16,0004.18
2023-07-13 21:31:00,SystemResetWarning,0829.7,5.00,000.00,028.6,026.2,000.0,036.9,030.1,21.2,0000.0,0015.13,0005.11,0004.15
2023-07-13 21:32:00,SystemResetWarning,0829.7,4.99,000.00,028.6,026.7,000.0,036.9,030.3,22.1,0000.0,0015.25,0005.04,0004.12
2023-07-13 21:33:00,SystemResetWarning,0829.7,4.99,000.00,028.7,027.1,000.0,037.0,030.4,20.6,0000.0,0016.80,0005.03,0004.09
2023-07-13 21:34:00,SystemResetWarning,0829.7,5.00,000.00,028.7,027.3,000.0,036.9,030.5,21.8,0000.0,0016.19,0005.06,0004.07
2023-07-13 21:35:00,SystemResetWarning,0829.7,5.00,000.00,028.7,026.1,000.0,036.9,030.4,20.9,0000.0,0015.66,0005.03,0004.04
2023-07-13 21:36:00,SystemResetWarning,0829.7,5.01,000.00,028.7,024.8,000.0,036.8,030.1,21.5,0000.0,0015.91,0005.05,0004.02
2023-07-13 21:37:00,SystemResetWarning,0829.7,5.02,000.00,028.6,025.1,000.0,036.8,030.1,20.5,0000.0,0015.07,0005.04,0004.02
2023-07-13 21:38:00,SystemResetWarning,0829.7,4.99,000.00,028.6,025.5,000.0,036.8,030.0,19.7,0000.0,0014.38,0005.01,0004.00
2023-07-13 21:39:00,SystemResetWarning,0829.7,5.00,000.00,028.6,025.9,000.0,036.8,030.0,20.1,0000.0,0015.08,0005.05,0003.97
2023-07-13 21:40:00,SystemResetWarning,0829.7,5.01,000.00,028.6,026.4,000.0,036.9,030.2,20.7,0000.0,0015.19,0005.02,0003.95
2023-07-13 21:41:00,SystemResetWarning,0829.7,5.00,000.00,028.6,026.8,000.0,036.9,030.3,20.9,0000.0,0015.57,0004.99,0003.94
2023-07-13 21:42:00,SystemResetWarning,0829.7,4.99,000.00,028.7,027.2,000.0,036.9,030.4,20.9,0000.0,0015.41,0004.95,0003.94
2023-07-13 21:43:00,SystemResetWarning,0829.7,5.00,000.00,028.8,027.4,000.0,037.0,030.5,19.7,0000.0,0015.84,0004.96,0003.94
2023-07-13 21:44:00,SystemResetWarning,0829.7,5.00,000.00,028.8,026.3,000.0,036.9,030.3,20.9,0000.0,0014.19,0004.95,0003.94
2023-07-13 21:45:00,SystemResetWarning,0829.6,5.01,000.00,028.7,025.0,000.0,036.8,030.1,20.4,0000.0,0013.67,0004.88,0003.92
2023-07-13 21:46:00,SystemResetWarning,0829.6,5.01,000.00,028.6,025.1,000.0,036.8,030.1,20.8,0000.0,0013.62,0004.87,0003.92
2023-07-13 21:47:00,SystemResetWarning,0829.5,5.00,000.00,028.6,025.5,000.0,036.8,030.0,20.3,0000.0,0013.50,0004.86,0003.93
2023-07-13 21:48:00,SystemResetWarning,0829.5,5.00,000.00,028.6,026.0,000.0,036.8,030.1,20.5,0000.0,0014.22,0004.87,0003.92
2023-07-13 21:49:00,SystemResetWarning,0829.5,5.00,000.00,028.6,026.4,000.0,036.9,030.2,19.7,0000.0,0014.88,0004.86,0003.92
2023-07-13 21:50:00,SystemResetWarning,0829.6,5.00,000.00,028.6,026.8,000.0,036.9,030.3,20.5,0000.0,0015.87,0004.79,0003.92
2023-07-13 21:51:00,SystemResetWarning,0829.6,5.00,000.00,028.7,027.2,000.0,036.9,030.4,19.1,0000.0,0014.94,0004.73,0003.93
2023-07-13 21:52:00,SystemResetWarning,0829.5,4.99,000.00,028.7,027.0,000.0,036.9,030.4,19.8,0000.0,0014.48,0004.73,0003.94
2023-07-13 21:53:00,SystemResetWarning,0829.5,5.00,000.00,028.7,025.3,000.0,036.8,030.2,20.5,0000.0,0014.88,0004.72,0003.92
2023-07-13 21:54:00,SystemResetWarning,0829.5,5.02,000.00,028.6,024.8,000.0,036.8,030.0,20.4,0000.0,0014.34,0004.72,0003.93
2023-07-13 21:55:00,SystemResetWarning,0829.5,4.99,000.00,028.6,025.1,000.0,036.8,029.9,20.0,0000.0,0014.69,0004.73,0003.93
2023-07-13 21:56:00,SystemResetWarning,0829.4,5.00,000.00,028.5,025.6,000.0,036.8,030.0,19.9,0000.0,0015.48,0004.73,0003.94
2023-07-13 21:57:00,SystemResetWarning,0829.4,5.00,000.00,028.6,026.0,000.0,036.9,030.1,20.5,0000.0,0015.49,0004.77,0003.95
2023-07-13 21:58:00,SystemResetWarning,0829.5,5.01,000.00,028.6,026.5,000.0,036.9,030.2,21.8,0000.0,0015.72,0004.78,0003.95
2023-07-13 21:59:00,SystemResetWarning,0829.5,5.00,000.00,028.6,026.9,000.0,036.9,030.3,21.6,0000.0,0014.96,0004.77,0003.95
